| time (UTC) | temp F | wind direction | speed MPH | gust MPH | rain 1hr in | rain 24hr in | rain mn in | humidity % | barometer mb |
| 20260903063056 | 59 | 220 | 2.0 | 7.0 | 0.00 | 0.02 | 0.02 | 80 | 1018.2 |
| 20260903061603 | 59 | 244 | 3.0 | 6.0 | 0.00 | 0.02 | 0.02 | 78 | 1018.3 |
| 20260903060038 | 59 | 235 | 2.0 | 7.0 | 0.00 | 0.02 | 0.02 | 80 | 1018.3 |
| 20260903054536 | 59 | 228 | 5.0 | 9.0 | 0.00 | 0.02 | 0.02 | 79 | 1018.3 |
| 20260903053036 | 59 | 218 | 5.0 | 10.0 | 0.00 | 0.02 | 0.02 | 77 | 1018.2 |
| 20260903051533 | 60 | 244 | 4.0 | 7.0 | 0.00 | 0.02 | 0.02 | 79 | 1018.2 |
| 20260903050030 | 59 | 253 | 4.0 | 6.0 | 0.00 | 0.02 | 0.02 | 79 | 1018.2 |
| 20260903044530 | 59 | 257 | 4.0 | 9.0 | 0.00 | 0.02 | 0.02 | 80 | 1017.9 |
| 20260903043028 | 59 | 240 | 6.0 | 10.0 | 0.00 | 0.02 | 0.02 | 81 | 1018.0 |
| 20260903041533 | 59 | 239 | 5.0 | 9.0 | 0.00 | 0.02 | 0.02 | 85 | 1017.8 |
| 20260903040028 | 60 | 277 | 6.0 | 11.0 | 0.00 | 0.02 | 0.02 | 82 | 1017.8 |
| 20260903034509 | 60 | 313 | 6.0 | 12.0 | 0.00 | 0.02 | 0.02 | 82 | 1017.8 |
| 20260903033008 | 60 | 249 | 6.0 | 12.0 | 0.00 | 0.02 | 0.02 | 83 | 1017.8 |
| 20260903031521 | 60 | 245 | 7.0 | 12.0 | 0.00 | 0.02 | 0.02 | 85 | 1017.9 |
| 20260903030006 | 60 | 265 | 8.0 | 12.0 | 0.00 | 0.02 | 0.02 | 84 | 1017.9 |
| 20260903024504 | 59 | 256 | 6.0 | 11.0 | 0.01 | 0.02 | 0.02 | 88 | 1018.0 |
| 20260903023002 | 59 | 235 | 7.0 | 11.0 | 0.02 | 0.02 | 0.02 | 89 | 1018.1 |
| 20260903021503 | 58 | 227 | 7.0 | 12.0 | 0.02 | 0.02 | 0.02 | 91 | 1018.1 |
| 20260903020107 | 57 | 258 | 6.0 | 11.0 | 0.02 | 0.02 | 0.02 | 93 | 1018.2 |
| 20260903014545 | 57 | 245 | 9.0 | 20.0 | 0.01 | 0.01 | 0.01 | 89 | 1018.1 |
| 20260903013041 | 60 | 218 | 5.0 | 14.0 | 0.00 | 0.00 | 0.00 | 83 | 1017.8 |
| 20260903011540 | 61 | 314 | 5.0 | 12.0 | 0.00 | 0.00 | 0.00 | 82 | 1017.7 |
| 20260903010038 | 61 | 290 | 8.0 | 14.0 | 0.00 | 0.00 | 0.00 | 82 | 1017.7 |
| 20260903004536 | 61 | 274 | 6.0 | 13.0 | 0.00 | 0.00 | 0.00 | 82 | 1017.7 |
| 20260903003036 | 61 | 283 | 6.0 | 16.0 | 0.00 | 0.00 | 0.00 | 81 | 1017.7 |
| 20260903001534 | 60 | 289 | 7.0 | 15.0 | 0.00 | 0.00 | 0.00 | 84 | 1017.8 |
| 20260903000031 | 59 | 280 | 8.0 | 14.0 | 0.00 | 0.00 | 0.00 | 84 | 1017.8 |
| 20260902234513 | 58 | 254 | 7.0 | 14.0 | 0.00 | 0.00 | 0.00 | 85 | 1017.7 |
| 20260902233014 | 58 | 294 | 9.0 | 16.0 | 0.00 | 0.00 | 0.00 | 86 | 1017.4 |
| 20260902231506 | 56 | 318 | 8.0 | 13.0 | 0.00 | 0.00 | 0.00 | 89 | 1017.5 |
| 20260902230004 | 55 | 314 | 8.0 | 16.0 | 0.00 | 0.00 | 0.00 | 89 | 1017.3 |
| 20260902224505 | 54 | 325 | 10.0 | 13.0 | 0.00 | 0.00 | 0.00 | 89 | 1017.2 |
| 20260902223003 | 52 | 302 | 9.0 | 13.0 | 0.00 | 0.00 | 0.00 | 91 | 1017.0 |
| 20260902221600 | 51 | 309 | 7.0 | 12.0 | 0.00 | 0.00 | 0.00 | 92 | 1016.8 |
| 20260902220057 | 50 | 299 | 10.0 | 12.0 | 0.00 | 0.00 | 0.00 | 92 | 1016.6 |
| 20260902214536 | 50 | 315 | 7.0 | 12.0 | 0.00 | 0.00 | 0.00 | 92 | 1016.4 |
| 20260902213031 | 49 | 301 | 7.0 | 10.0 | 0.00 | 0.00 | 0.00 | 92 | 1016.2 |
| 20260902211527 | 49 | 342 | 4.0 | 11.0 | 0.00 | 0.00 | 0.00 | 91 | 1016.1 |
| 20260902210033 | 50 | 329 | 5.0 | 10.0 | 0.00 | 0.00 | 0.00 | 90 | 1016.0 |
| 20260902204521 | 52 | 335 | 5.0 | 9.0 | 0.00 | 0.00 | 0.00 | 87 | 1015.6 |
| 20260902203018 | 55 | 273 | 7.0 | 12.0 | 0.00 | 0.00 | 0.00 | 88 | 1015.6 |
| 20260902201520 | 55 | 263 | 8.0 | 15.0 | 0.00 | 0.00 | 0.00 | 88 | 1015.5 |
| 20260902200020 | 54 | 310 | 6.0 | 11.0 | 0.00 | 0.00 | 0.00 | 88 | 1015.3 |
| 20260902194557 | 54 | 259 | 7.0 | 15.0 | 0.00 | 0.00 | 0.00 | 88 | 1015.0 |
| 20260902193100 | 54 | 282 | 7.0 | 14.0 | 0.00 | 0.00 | 0.00 | 87 | 1014.9 |
| 20260902191530 | 55 | 322 | 8.0 | 13.0 | 0.00 | 0.00 | 0.00 | 86 | 1014.8 |
| 20260902190028 | 55 | 274 | 6.0 | 15.0 | 0.00 | 0.00 | 0.00 | 85 | 1014.7 |
| 20260902184527 | 55 | 251 | 9.0 | 15.0 | 0.00 | 0.00 | 0.00 | 84 | 1014.6 |
| 20260902183026 | 55 | 272 | 6.0 | 12.0 | 0.00 | 0.00 | 0.00 | 84 | 1014.5 |
| 20260902181526 | 55 | 292 | 7.0 | 13.0 | 0.00 | 0.00 | 0.00 | 83 | 1014.5 |
| 20260902180023 | 56 | 308 | 7.0 | 16.0 | 0.00 | 0.00 | 0.00 | 82 | 1014.5 |
| 20260902174521 | 56 | 299 | 8.0 | 16.0 | 0.00 | 0.00 | 0.00 | 82 | 1014.5 |
| 20260902173021 | 56 | 291 | 7.0 | 13.0 | 0.00 | 0.00 | 0.00 | 81 | 1014.6 |
| 20260902171505 | 56 | 314 | 8.0 | 13.0 | 0.00 | 0.00 | 0.00 | 80 | 1014.7 |
| 20260902170004 | 56 | 283 | 6.0 | 14.0 | 0.00 | 0.00 | 0.00 | 79 | 1014.8 |
| 20260902164505 | 56 | 294 | 8.0 | 14.0 | 0.00 | 0.00 | 0.00 | 77 | 1014.9 |
| 20260902163001 | 56 | 300 | 8.0 | 13.0 | 0.00 | 0.00 | 0.00 | 77 | 1014.9 |
| 20260902161600 | 56 | 277 | 8.0 | 14.0 | 0.00 | 0.00 | 0.00 | 75 | 1015.0 |
| 20260902160100 | 56 | 284 | 7.0 | 15.0 | 0.00 | 0.00 | 0.00 | 73 | 1015.2 |
| 20260902154608 | 56 | 283 | 8.0 | 14.0 | 0.00 | 0.00 | 0.00 | 74 | 1015.2 |
| 20260902153057 | 56 | 270 | 8.0 | 14.0 | 0.00 | 0.00 | 0.00 | 75 | 1015.2 |
| 20260902151538 | 56 | 268 | 6.0 | 16.0 | 0.00 | 0.00 | 0.00 | 75 | 1015.2 |
| 20260902150036 | 56 | 273 | 5.0 | 12.0 | 0.00 | 0.00 | 0.00 | 77 | 1015.3 |
| 20260902144522 | 56 | 271 | 7.0 | 11.0 | 0.00 | 0.00 | 0.00 | 77 | 1015.3 |
| 20260902143021 | 56 | 208 | 4.0 | 15.0 | 0.00 | 0.00 | 0.00 | 79 | 1015.5 |
| 20260902141520 | 55 | 225 | 5.0 | 12.0 | 0.00 | 0.00 | 0.00 | 78 | 1015.5 |
| 20260902140019 | 55 | 265 | 3.0 | 11.0 | 0.00 | 0.00 | 0.00 | 79 | 1015.6 |
| 20260902134517 | 56 | 266 | 4.0 | 9.0 | 0.00 | 0.00 | 0.00 | 80 | 1015.6 |
| 20260902133017 | 56 | 267 | 4.0 | 8.0 | 0.00 | 0.00 | 0.00 | 77 | 1015.7 |
| 20260902131515 | 56 | 287 | 3.0 | 12.0 | 0.00 | 0.00 | 0.00 | 79 | 1015.7 |
| 20260902130015 | 56 | 264 | 7.0 | 15.0 | 0.00 | 0.00 | 0.00 | 79 | 1015.7 |
| 20260902124557 | 56 | 223 | 9.0 | 15.0 | 0.00 | 0.00 | 0.00 | 77 | 1015.8 |
| 20260902123103 | 56 | 257 | 9.0 | 13.0 | 0.00 | 0.00 | 0.00 | 76 | 1015.9 |
| 20260902121538 | 56 | 232 | 6.0 | 12.0 | 0.00 | 0.00 | 0.00 | 79 | 1015.8 |
| 20260902120033 | 56 | 242 | 7.0 | 14.0 | 0.00 | 0.00 | 0.00 | 78 | 1016.0 |
| 20260902114524 | 56 | 203 | 7.0 | 11.0 | 0.00 | 0.00 | 0.00 | 79 | 1015.8 |
| 20260902113011 | 56 | 258 | 8.0 | 12.0 | 0.00 | 0.00 | 0.00 | 78 | 1015.6 |
| 20260902111558 | 56 | 237 | 5.0 | 10.0 | 0.00 | 0.00 | 0.00 | 77 | 1015.3 |
| 20260902110051 | 56 | 233 | 4.0 | 9.0 | 0.00 | 0.00 | 0.00 | 77 | 1015.2 |
| 20260902104535 | 56 | 259 | 5.0 | 11.0 | 0.00 | 0.00 | 0.00 | 77 | 1015.3 |
| 20260902103034 | 56 | 294 | 3.0 | 16.0 | 0.00 | 0.00 | 0.00 | 76 | 1015.3 |
| 20260902101534 | 56 | 218 | 9.0 | 13.0 | 0.00 | 0.00 | 0.00 | 74 | 1015.1 |
| 20260902100039 | 56 | 222 | 7.0 | 14.0 | 0.00 | 0.00 | 0.00 | 72 | 1015.0 |
| 20260902094533 | 56 | 287 | 4.0 | 8.0 | 0.00 | 0.00 | 0.00 | 71 | 1014.9 |
| 20260902093035 | 56 | 299 | 4.0 | 9.0 | 0.00 | 0.00 | 0.00 | 71 | 1014.7 |
| 20260902091531 | 57 | 272 | 3.0 | 14.0 | 0.00 | 0.00 | 0.00 | 69 | 1014.7 |
| 20260902090030 | 57 | 248 | 6.0 | 16.0 | 0.00 | 0.01 | 0.00 | 70 | 1014.5 |
| 20260902084520 | 55 | 269 | 3.0 | 7.0 | 0.00 | 0.01 | 0.00 | 73 | 1014.5 |
| 20260902083020 | 55 | 282 | 5.0 | 8.0 | 0.00 | 0.01 | 0.00 | 71 | 1014.2 |
| 20260902081518 | 56 | 240 | 4.0 | 8.0 | 0.00 | 0.01 | 0.00 | 70 | 1014.1 |
| 20260902080018 | 57 | 265 | 3.0 | 9.0 | 0.00 | 0.02 | 0.00 | 69 | 1014.0 |
| 20260902074524 | 58 | 247 | 5.0 | 10.0 | 0.00 | 0.02 | 0.00 | 70 | 1014.0 |
| 20260902073013 | 58 | 205 | 6.0 | 15.0 | 0.00 | 0.02 | 0.00 | 70 | 1013.9 |
| 20260902071514 | 58 | 306 | 4.0 | 8.0 | 0.00 | 0.02 | 0.00 | 71 | 1014.0 |
| 20260902070010 | 57 | 266 | 2.0 | 8.0 | 0.00 | 0.12 | 0.00 | 73 | 1014.1 |
| 20260902064511 | 58 | 258 | 2.0 | 8.0 | 0.00 | 0.12 | 0.00 | 72 | 1014.1 |